Regional Weather Roundup
Issued by NWS

Home | Current Version | Previous Version | Text Only | Print | Product List | Glossary Off
Versions: 1 2 3 4 5 6 7 8 9 10 11 12 13 14 15 16 17 18 19 20 21 22 23 24 25 26 27 28 29 30 31 32 33 34 35 36 37 38 39 40 41 42 43 44 45 46 47 48 49 50

000
ASUS44 KMEG 231210
RWRTN
TENNESSEE HOURLY STATE WEATHER ROUNDUP
NATIONAL WEATHER SERVICE MEMPHIS TN
700 AM CDT MON APR 23 2018

TNZ002-004-019-021-049-052-054-088>092-231300-
WEST TENNESSEE

CITY           SKY/WX    TMP DP  RH WIND       PRES   REMARKS
MEMPHIS INTL   CLOUDY    56  56 100 SW8       29.85R
NWS MEMPHIS      N/A     55 N/A N/A MISG        N/A
JACKSON        CLOUDY    59  58  96 SW8       29.83R
DYERSBURG      LGT RAIN  58  57  97 S5        29.81R
SOMERVILLE     CLOUDY    55  55 100 SW8G15    29.83R FOG
COVINGTON      CLOUDY    57  55  94 SW14      29.83R FOG
UNION CITY     CLOUDY    57  57 100 S10       29.80R FOG
BOLIVAR        CLOUDY    57  55  94 VRB7      29.85R
PARIS          CLOUDY    57  57 100 SE8       29.84R FOG
HUNTINGDON     CLOUDY    59  57  94 SE9       29.83R
LEXINGTON      CLOUDY    59  57  94 VRB5      29.86R
SELMER         CLOUDY    59  57  94 S6G13     29.85R
SAVANNAH       CLOUDY    59  57  94 S7        29.87R
$$

TNZ008-025-027-028-033-062-065-066-231300-
NORTH MIDDLE TENNESSEE

CITY           SKY/WX    TMP DP  RH WIND       PRES   REMARKS
NASHVILLE      CLOUDY    59  57  93 SE9       29.92R
PORTLAND       CLOUDY    57  55  94 SE7       29.94R
CLARKSVILLE    CLOUDY    58  55  90 SE6       29.90R
SMYRNA         CLOUDY    58  57  97 SE10      29.94R
COOKEVILLE     PTSUNNY   55  54  94 E18       29.94F FOG
LIVINGSTON     CLOUDY    55  52  88 SE12G18   29.99R
GALLATIN       CLOUDY    57  55  94 E6        29.97R
CROSSVILLE     LGT RAIN  52  50  93 E8G18     30.02R FOG
ROCKWOOD       CLOUDY    52  52 100 E9G18     30.03R FOG
$$

TNZ061-075-076-078-094-096-097-231300-
SOUTH MIDDLE TENNESSEE

CITY           SKY/WX    TMP DP  RH WIND       PRES   REMARKS
LEWISBURG      MOSUNNY   59  57  94 S8        29.90S
TULLAHOMA      CLOUDY    59  55  88 SE9       29.93R
WINCHESTER     CLOUDY    59  55  88 SE7G14    29.93R
MCMINNVILLE    CLOUDY    59  54  82 VRB5      29.95R
COLUMBIA       CLOUDY    59  59 100 CALM      29.89R
SHELBYVILLE    CLOUDY    57  57 100 S8        29.93R FOG
$$

TNZ017-018-042-046-047-231300-
NORTHEAST TENNESSEE

CITY           SKY/WX    TMP DP  RH WIND       PRES   REMARKS
TRI CITIES     LGT RAIN  55  50  83 E7        30.14S
ELIZABETHTON   LGT RAIN  55  46  71 E9G23     30.15S
$$

TNZ012-013-036-069-073-074-231300-
CENTRAL EAST TENNESSEE

CITY           SKY/WX    TMP DP  RH WIND       PRES   REMARKS
KNOXVILLE      LGT RAIN  55  53  93 NW5       30.01R
OAK RIDGE      RAIN      54  54 100 CALM      30.06R FOG
DOWNTOWN KNOXV PTSUNNY   55  54  94 CALM      30.03R FOG
GATLINBURG     PTSUNNY   61  48  63 VRB6G15   30.00R
MORRISTOWN     CLOUDY    55  52  88 E10G20    30.06R
JACKSBORO      PTSUNNY   54  52  94 NE6       30.09R
$$

TNZ083-085-099-231300-
SOUTHEAST TENNESSEE

CITY           SKY/WX    TMP DP  RH WIND       PRES   REMARKS
CHATTANOOGA    LGT RAIN  58  55  90 SE9       29.99R
DAYTON         CLOUDY    55  55 100 CALM      30.01R FOG
$$

SKY/WX REPORTED AS FAIR MEANS FEW OR NO CLOUDS BELOW
12 THOUSAND FEET.





USA.gov is the U.S. government's official web portal to all federal, state and local government web resources and services.